DateTimeUTC,F1_A11,F1_S11,BsB_S11,BsG_S11,BsR_S11,BbsB_S11,BbsG_S11,BbsR_S11,BaB_A11,BaG_A11,BaR_A11,Tu_S11,T_S11,Uu_S11,U_S11,P_S11,T1_A11
2021-11-28T16:00:00Z,00000200,21000000,,,,,,,-000.06,-000.02,-000.42,18.3,25.3,,00.0,0628.4,30.9
2021-11-28T16:01:00Z,00000200,21000000,,,,,,,-000.03,-000.29,-000.44,18.3,25.3,,00.0,0628.5,30.8
2021-11-28T16:02:00Z,00000200,21000000,,,,,,,-000.08,-000.02,-000.13,18.3,25.3,,00.0,0628.5,30.8
2021-11-28T16:03:00Z,00000200,61000000,,,,,,,-000.22,-000.27,0000.00,18.3,25.3,,00.0,0628.5,30.8
2021-11-28T16:04:00Z,00000200,41000000,0000.94,0000.11,-000.08,0000.67,0000.08,0000.10,-000.26,-000.01,-000.20,18.6,25.2,,00.0,0629.4,30.8
2021-11-28T16:05:00Z,00000200,01000000,-000.50,0000.42,0000.09,0000.05,0000.44,-000.09,-000.27,-000.05,-000.08,18.7,25.2,,00.0,0629.5,30.8
2021-11-28T16:06:00Z,00000200,01000000,0000.32,0000.33,0000.12,0000.53,-000.05,0000.15,0000.38,-000.11,0000.01,18.7,25.1,,00.0,0629.6,30.8
2021-11-28T16:07:00Z,00000200,01000000,-000.41,-000.01,0000.02,0000.54,-000.07,0000.17,-000.13,-000.06,0000.06,18.7,25.2,,00.0,0629.6,30.8
2021-11-28T16:08:00Z,00000200,01000000,0000.18,0000.32,0000.14,-000.01,0000.27,-000.12,0000.02,0000.07,-000.53,18.7,25.1,,00.0,0629.7,30.8
2021-11-28T16:09:00Z,00000200,01000000,-000.20,0000.38,0000.09,-000.21,0000.23,-000.30,-000.46,-000.23,0000.16,18.7,25.2,,00.0,0629.8,30.8
2021-11-28T16:10:00Z,00000200,01000000,0000.50,0000.30,-000.18,-000.14,0000.36,-000.05,0000.12,0000.00,-000.06,18.8,25.2,,00.0,0629.8,30.8
2021-11-28T16:11:00Z,00000200,01000000,0000.47,-000.14,-000.38,-000.01,0000.13,-000.16,0000.30,-000.09,-000.13,18.7,25.2,,00.0,0629.9,30.8
2021-11-28T16:12:00Z,00000200,01000000,0000.52,-000.14,0000.12,-000.12,0000.21,-000.14,-000.22,-000.30,-000.16,18.8,25.2,,00.0,0629.9,30.8
2021-11-28T16:13:00Z,00000200,01000000,-000.69,0000.11,0000.11,0001.02,0000.45,-000.05,-000.35,0000.12,0000.42,18.8,25.2,,00.0,0629.9,30.8
2021-11-28T16:14:00Z,00000200,01000000,-000.00,0000.19,-000.11,0000.26,0000.09,-000.23,0000.32,0000.22,-000.56,18.7,25.2,,00.0,0629.9,30.8
2021-11-28T16:15:00Z,00000200,01000000,0000.26,0000.35,0000.38,0000.66,-000.05,0000.19,-000.19,-000.39,0000.03,18.7,25.1,,00.0,0629.9,30.8
2021-11-28T16:16:00Z,00000200,01000000,0000.15,0000.07,-000.28,-000.06,0000.02,-000.27,-000.06,-000.01,-000.01,18.6,25.1,,00.0,0629.9,30.8
2021-11-28T16:17:00Z,00000200,01000000,0001.07,0000.00,0000.12,0000.19,0000.06,0000.42,-000.09,-000.10,0000.04,18.6,25.1,,00.0,0629.9,30.8
2021-11-28T16:18:00Z,00000200,01000000,-000.35,0000.02,0000.26,0000.10,-000.27,-000.10,0000.13,0000.02,-000.24,18.6,25.1,,00.0,0630.0,30.8
2021-11-28T16:19:00Z,00000200,01000000,0000.52,0000.01,0000.04,0000.13,0000.17,-000.05,-000.15,0000.34,0000.26,18.6,25.1,,00.0,0630.0,30.8
2021-11-28T16:20:00Z,00000200,01000000,0000.58,0000.32,0000.14,0001.41,-000.03,-000.11,0000.23,0000.02,-000.15,18.6,25.1,,00.0,0630.0,30.8
2021-11-28T16:21:00Z,00000200,01000000,-000.21,-000.01,0000.20,-000.57,0000.29,0000.04,0000.11,-000.07,-000.13,18.6,25.1,,00.0,0630.0,30.8
2021-11-28T16:22:00Z,00000200,01000000,-000.33,0000.23,-000.32,0000.27,-000.11,-000.02,-000.31,-000.09,0000.18,18.6,25.1,,00.0,0630.1,30.8
2021-11-28T16:23:00Z,00000200,01000000,-000.15,-000.05,0000.21,0000.61,0000.40,-000.00,0000.07,-000.13,0000.09,18.6,25.1,,00.0,0630.1,30.8
2021-11-28T16:24:00Z,00000200,01000000,0000.65,-000.00,-000.09,0000.49,0000.48,-000.09,0000.39,0000.20,-000.01,18.6,25.1,,00.0,0630.1,30.8
2021-11-28T16:25:00Z,00000200,01000000,0000.25,0000.27,0000.07,-000.13,-000.05,-000.23,0000.00,0000.21,0000.03,18.6,25.1,,00.0,0630.1,30.8
2021-11-28T16:26:00Z,00000200,01000000,0000.25,0000.08,0000.01,0000.37,-000.03,0000.14,0000.29,0000.23,0000.47,18.6,25.1,,00.0,0630.1,30.8
2021-11-28T16:27:00Z,00000200,01000000,-000.29,0000.15,0000.16,0000.43,-000.22,0000.12,-000.20,-000.02,-000.32,18.6,25.1,,00.0,0630.1,30.8
2021-11-28T16:28:00Z,00000200,01000000,0000.12,-000.00,-000.27,0000.26,0000.04,-000.26,0000.15,0000.04,-000.06,18.7,25.1,,00.0,0630.2,30.8
2021-11-28T16:29:00Z,00000200,01000000,-000.35,-000.18,0000.05,0000.08,0000.16,0000.20,0000.22,0000.03,0000.33,18.6,25.1,,00.0,0630.2,30.8
2021-11-28T16:30:00Z,00000200,01000000,-000.49,0000.13,-000.11,0000.08,0000.18,-000.23,-000.03,0000.01,-000.14,18.5,25.1,,00.0,0630.1,30.8
2021-11-28T16:31:00Z,00000200,01000000,0000.58,0000.11,0000.09,0000.06,0000.27,-000.12,0000.21,0000.15,0000.04,18.5,25.0,,00.0,0630.1,30.8
2021-11-28T16:32:00Z,00000200,01000000,0000.19,0000.34,-000.20,0000.25,0000.16,-000.14,-000.04,0000.19,-000.12,18.5,25.0,,00.0,0630.2,30.8
2021-11-28T16:33:00Z,00000200,01000000,0000.06,0000.13,-000.16,-000.27,0000.67,0000.03,-000.35,-000.38,0000.07,18.5,25.0,,00.0,0630.2,30.8
2021-11-28T16:34:00Z,00000200,01000000,-000.28,0000.47,0000.03,0000.03,0000.26,-000.20,0000.24,-000.03,0000.09,18.5,25.0,,00.0,0630.2,30.8
2021-11-28T16:35:00Z,00000200,01000000,-000.07,0000.07,-000.05,0000.34,0000.29,-000.07,-000.04,-000.08,-000.01,18.5,25.0,,00.0,0630.3,30.8
2021-11-28T16:36:00Z,00000200,01000000,-000.00,0000.24,0000.05,-000.12,0000.30,-000.19,0000.48,0000.53,0000.00,18.5,25.0,,00.0,0630.4,30.8
2021-11-28T16:37:00Z,00000200,01000000,-000.21,0000.12,-000.16,0000.08,0000.42,0000.41,-000.35,-000.18,0000.33,18.5,25.0,,00.0,0630.4,30.8
2021-11-28T16:38:00Z,00000200,01000000,-000.74,0000.24,-000.12,-000.06,-000.03,0000.17,0000.06,-000.01,-000.12,18.5,25.0,,00.0,0630.4,30.8
2021-11-28T16:39:00Z,00000200,01000000,-000.16,-000.29,0000.23,0000.20,0000.03,0000.21,-000.03,0000.24,-000.50,18.5,25.0,,00.0,0630.5,30.8
2021-11-28T16:40:00Z,00000200,01000000,-000.06,-000.09,-000.17,-000.04,0000.20,0000.16,0000.15,-000.39,0000.31,18.5,25.0,,00.0,0630.4,30.8
2021-11-28T16:41:00Z,00000200,01000000,0000.05,0000.04,-000.12,0000.02,0000.18,-000.20,-000.11,0000.20,0000.13,18.6,25.0,,00.0,0630.4,30.8
2021-11-28T16:42:00Z,00000200,01000000,0000.20,0000.55,0000.21,-000.56,0000.37,-000.13,0000.23,0000.24,0000.03,18.6,25.0,,00.0,0630.4,30.8
2021-11-28T16:43:00Z,00000200,01000000,-000.44,0000.10,0000.12,0000.15,0000.11,-000.12,-000.11,-000.32,-000.19,18.6,25.0,,00.0,0630.4,30.8
2021-11-28T16:44:00Z,00000200,01000000,-000.01,0000.20,-000.43,-000.29,-000.07,-000.32,-000.08,0000.16,0000.02,18.6,24.9,,00.0,0630.4,30.8
2021-11-28T16:45:00Z,00000200,01000000,-000.19,-000.16,-000.17,-000.10,0000.06,0000.10,0000.15,0000.08,0000.07,18.6,25.0,,00.0,0630.4,30.8
2021-11-28T16:46:00Z,00000200,01000000,0000.46,0000.02,0000.00,0000.04,0000.32,-000.29,-000.34,0000.03,0000.04,18.6,24.9,,00.0,0630.4,30.8
2021-11-28T16:47:00Z,00000200,01000000,-000.45,-000.19,-000.29,-000.16,0000.16,0000.15,0000.08,0000.04,-000.37,18.6,25.0,,00.0,0630.4,30.8
2021-11-28T16:48:00Z,00000200,01000000,0000.70,0000.03,0000.17,-000.12,0000.21,0000.01,0000.00,-000.09,0000.32,18.6,25.0,,00.0,0630.5,30.8
2021-11-28T16:49:00Z,00000200,01000000,-000.27,0000.08,-000.24,0000.17,0000.31,-000.12,0000.39,0000.24,0000.19,18.6,25.0,,00.0,0630.5,30.8
2021-11-28T16:50:00Z,00000200,01000000,0000.66,-000.14,-000.19,-000.21,-000.05,0000.18,-000.06,-000.03,-000.11,18.6,25.0,,00.0,0630.6,30.8
2021-11-28T16:51:00Z,00000200,01000000,0000.50,0000.04,0000.15,-000.05,0000.37,-000.14,0000.34,-000.04,0000.05,18.6,25.0,,00.0,0630.6,30.8
2021-11-28T16:52:00Z,00000200,01000000,-000.06,0000.28,0000.26,-000.63,0000.29,-000.07,-000.06,0000.21,-000.16,18.6,25.0,,00.0,0630.6,30.8
2021-11-28T16:53:00Z,00000200,01000000,-000.25,0000.40,-000.46,0000.27,0000.17,-000.30,-000.32,-000.50,0000.11,18.6,25.0,,00.0,0630.7,30.8
2021-11-28T16:54:00Z,00000200,01000000,0000.10,0000.43,-000.15,0000.37,0000.11,0000.17,0000.35,0000.24,0000.19,18.7,25.0,,00.0,0630.7,30.8
2021-11-28T16:55:00Z,00000200,01000000,0000.50,0000.24,0000.19,0000.31,-000.01,0000.09,0000.14,0000.27,-000.20,18.6,25.0,,00.0,0630.7,30.8
2021-11-28T16:56:00Z,00000200,01000000,0000.05,0000.01,0000.33,0000.03,0000.30,0000.01,-000.03,-000.07,0000.26,18.7,25.0,,00.0,0630.7,30.8
2021-11-28T16:57:00Z,00000200,41000000,,,,,,,0001.56,0001.75,0001.64,18.7,25.0,,00.0,0630.7,30.8
2021-11-28T16:58:00Z,00000200,61000000,,,,,,,-000.11,-000.48,-000.58,18.3,25.1,,00.0,0629.8,30.8
2021-11-28T16:59:00Z,00000200,21000000,,,,,,,-000.68,-000.17,-000.42,18.3,25.2,,00.0,0629.8,30.8
